Total_Precipitation_Accumulation
0.02 0.04 0.07 0.07 0.09 0.11 0.14 0.20 0.25 0.35 0.29 0.27 0.41 0.66 0.78 0.80 0.83 0.97 1.14 1.15 1.19 1.31 1.70 2.18 2.71 3.20 3.87 4.79 5.75 6.19 6.05 5.46 4.97 4.52 4.08 3.80 3.51 3.28 3.16 2.85 2.49 2.41 2.40 2.44
0.04 0.06 0.05 0.05 0.06 0.10 0.14 0.22 0.26 0.32 0.27 0.31 0.45 0.69 0.90 1.00 1.06 1.00 1.04 1.17 1.13 1.30 1.76 2.28 2.88 3.26 3.60 4.14 4.91 5.29 5.02 4.39 3.75 3.48 3.39 3.30 3.25 2.91 2.69 2.61 2.54 2.24 2.26 2.34
0.04 0.06 0.04 0.04 0.05 0.10 0.15 0.20 0.26 0.31 0.27 0.37 0.51 0.94 1.23 1.25 1.02 0.81 0.73 0.88 0.91 1.03 1.55 2.29 2.83 3.13 3.39 3.60 3.59 3.75 3.70 3.26 2.92 2.80 2.80 2.82 2.97 2.77 2.49 2.40 2.33 2.09 2.01 1.97
0.03 0.03 0.03 0.04 0.06 0.09 0.15 0.12 0.14 0.21 0.31 0.52 0.59 1.35 1.60 1.36 1.13 0.89 0.72 0.73 0.78 0.94 1.40 2.15 2.44 2.56 2.62 2.70 2.50 2.51 2.65 2.56 2.53 2.42 2.43 2.34 2.21 2.21 2.12 2.10 2.06 2.01 1.89 1.80
0.04 0.03 0.03 0.04 0.05 0.10 0.14 0.11 0.12 0.19 0.34 0.52 0.73 1.22 1.63 1.46 1.28 0.96 0.71 0.67 0.75 0.84 1.10 1.44 1.51 1.66 1.75 1.80 1.83 2.02 2.33 2.43 2.35 2.28 2.39 2.39 2.10 1.97 1.90 1.94 2.05 1.99 1.88 1.73
0.06 0.06 0.04 0.04 0.05 0.07 0.10 0.13 0.19 0.35 0.53 0.93 0.94 1.12 1.56 1.39 1.12 0.77 0.64 0.64 0.58 0.61 0.80 0.99 1.04 1.13 1.20 1.24 1.36 1.60 2.06 2.28 2.16 2.11 2.14 2.11 2.05 2.02 1.93 1.88 1.91 1.88 1.81 1.81
0.11 0.09 0.10 0.08 0.08 0.10 0.10 0.15 0.42 0.84 1.29 1.40 0.90 1.05 1.39 1.04 0.76 0.57 0.47 0.50 0.52 0.65 0.72 0.83 0.99 1.05 0.98 0.94 1.07 1.30 1.63 1.78 1.75 1.81 1.92 1.99 2.06 2.03 1.88 1.82 1.76 1.73 1.60 1.67
0.15 0.17 0.14 0.09 0.07 0.10 0.13 0.15 0.31 0.59 0.74 0.87 0.88 1.32 1.44 0.85 0.59 0.47 0.43 0.44 0.55 0.63 0.61 0.64 0.74 0.74 0.73 0.80 0.89 1.07 1.24 1.33 1.43 1.54 1.72 1.87 1.89 1.87 1.82 1.94 1.81 1.67 1.50 1.46
0.07 0.08 0.07 0.06 0.07 0.08 0.11 0.12 0.14 0.20 0.30 0.63 1.02 1.28 1.18 0.79 0.52 0.41 0.40 0.39 0.49 0.51 0.45 0.46 0.52 0.56 0.61 0.78 0.90 0.96 1.06 1.17 1.28 1.38 1.62 1.77 1.77 1.71 1.74 1.83 1.75 1.59 1.59 1.51
0.04 0.04 0.05 0.06 0.07 0.08 0.10 0.10 0.11 0.15 0.33 0.62 0.99 1.38 1.33 0.99 0.70 0.59 0.45 0.38 0.44 0.45 0.41 0.44 0.49 0.56 0.57 0.62 0.80 0.90 0.97 1.11 1.27 1.35 1.40 1.44 1.57 1.54 1.53 1.48 1.47 1.55 1.58 1.56
0.04 0.04 0.04 0.06 0.09 0.10 0.09 0.09 0.10 0.12 0.19 0.42 0.81 1.10 0.87 0.73 0.58 0.59 0.54 0.49 0.49 0.51 0.49 0.47 0.55 0.57 0.57 0.58 0.73 0.85 0.91 1.00 1.10 1.12 1.15 1.26 1.34 1.33 1.31 1.31 1.28 1.39 1.45 1.50
0.04 0.05 0.06 0.09 0.11 0.10 0.09 0.08 0.09 0.13 0.15 0.23 0.49 0.69 0.51 0.53 0.48 0.54 0.58 0.61 0.63 0.64 0.62 0.60 0.65 0.61 0.65 0.67 0.71 0.81 0.79 0.81 0.88 0.96 1.01 1.07 1.19 1.20 1.19 1.22 1.37 1.45 1.44 1.39
0.04 0.06 0.08 0.19 0.24 0.18 0.11 0.09 0.11 0.12 0.13 0.18 0.46 0.70 0.50 0.50 0.57 0.61 0.59 0.68 0.69 0.61 0.65 0.80 0.82 0.68 0.68 0.70 0.72 0.75 0.72 0.75 0.80 0.86 0.89 0.94 1.08 1.25 1.32 1.36 1.43 1.52 1.53 1.47
0.06 0.06 0.07 0.19 0.26 0.26 0.20 0.15 0.14 0.14 0.15 0.18 0.30 0.51 0.47 0.45 0.56 0.66 0.60 0.63 0.69 0.66 0.67 0.83 0.92 0.72 0.63 0.64 0.65 0.67 0.67 0.64 0.62 0.73 0.87 0.97 1.17 1.39 1.49 1.51 1.53 1.54 1.55 1.52
0.07 0.07 0.06 0.07 0.13 0.19 0.21 0.18 0.15 0.12 0.13 0.20 0.28 0.42 0.53 0.62 0.64 0.60 0.60 0.66 0.64 0.69 0.70 0.70 0.74 0.67 0.64 0.64 0.64 0.65 0.67 0.67 0.69 0.86 1.00 1.15 1.37 1.46 1.51 1.59 1.61 1.66 1.68 1.60
0.10 0.09 0.08 0.08 0.14 0.15 0.16 0.19 0.14 0.10 0.10 0.16 0.28 0.45 0.54 0.56 0.66 0.69 0.62 0.60 0.66 0.72 0.76 0.84 0.84 0.80 0.84 0.80 0.76 0.78 0.79 0.85 0.99 1.14 1.28 1.36 1.45 1.52 1.49 1.49 1.51 1.66 1.73 1.79
0.18 0.18 0.18 0.17 0.19 0.20 0.22 0.21 0.15 0.14 0.17 0.23 0.31 0.45 0.56 0.64 0.78 0.86 0.85 0.76 0.77 0.88 0.91 1.02 1.07 1.03 1.04 0.98 0.97 1.07 1.05 1.13 1.29 1.46 1.62 1.63 1.61 1.65 1.65 1.68 1.70 1.72 1.85 1.97
0.27 0.29 0.26 0.24 0.29 0.40 0.31 0.24 0.21 0.22 0.23 0.28 0.38 0.53 0.66 0.77 0.81 0.95 1.03 0.99 0.91 0.88 0.93 1.05 1.13 1.12 1.06 1.06 1.12 1.35 1.46 1.44 1.56 1.67 1.79 1.89 1.91 1.98 2.05 2.12 2.10 2.14 2.19 2.24
0.29 0.39 0.39 0.38 0.46 0.46 0.39 0.34 0.30 0.33 0.44 0.44 0.55 0.78 0.92 0.93 1.07 1.27 1.19 1.05 1.02 1.05 1.04 1.19 1.19 1.16 1.16 1.33 1.40 1.46 1.57 1.57 1.73 1.92 2.06 2.15 2.21 2.23 2.25 2.27 2.38 2.51 2.64 2.66
0.35 0.38 0.48 0.46 0.56 0.63 0.60 0.48 0.44 0.56 1.05 0.89 0.87 0.94 0.92 1.01 1.41 1.46 1.13 1.00 1.06 1.08 1.19 1.32 1.34 1.31 1.38 1.64 1.71 1.78 1.87 1.93 2.00 2.11 2.28 2.46 2.56 2.59 2.56 2.61 2.76 2.92 3.07 3.08
0.61 0.62 0.58 0.55 0.64 0.70 0.65 0.55 0.62 1.16 1.60 1.30 1.17 1.13 1.16 1.33 1.38 1.35 1.21 1.07 1.03 1.05 1.16 1.30 1.34 1.36 1.44 1.65 1.85 2.13 2.28 2.32 2.32 2.37 2.50 2.62 2.72 2.85 2.90 2.98 3.06 3.22 3.32 3.27
0.89 0.93 0.91 0.87 1.01 1.08 0.72 0.72 1.10 1.44 1.28 1.37 1.49 1.52 1.48 1.47 1.29 1.20 1.17 1.20 1.15 1.13 1.18 1.26 1.39 1.47 1.59 1.73 1.98 2.19 2.36 2.53 2.63 2.62 2.75 2.79 2.80 2.72 2.71 2.94 3.12 3.30 3.48 3.44
1.11 1.14 1.17 1.22 1.35 1.22 0.95 1.03 1.11 1.09 1.23 1.35 1.44 1.57 1.62 1.57 1.56 1.41 1.36 1.36 1.31 1.23 1.16 1.20 1.28 1.41 1.52 1.62 1.83 2.21 2.34 2.40 2.48 2.57 2.62 2.73 2.79 2.83 2.88 3.06 3.22 3.41 3.50 3.43
1.18 1.14 1.27 1.41 1.47 1.37 1.27 1.28 1.31 1.32 1.38 1.40 1.41 1.49 1.55 1.56 1.64 1.55 1.41 1.29 1.19 1.13 1.12 1.17 1.26 1.37 1.46 1.43 1.59 1.81 2.04 2.16 2.19 2.22 2.25 2.25 2.37 2.54 2.77 3.07 3.16 3.22 3.28 3.28
1.32 1.26 1.42 1.78 1.88 1.85 1.72 1.70 1.67 1.58 1.63 1.69 1.61 1.56 1.59 1.49 1.47 1.44 1.27 1.16 1.13 1.14 1.09 1.17 1.34 1.35 1.39 1.45 1.49 1.54 1.60 1.81 1.96 1.96 1.97 2.08 2.18 2.35 2.55 2.78 2.93 2.89 2.92 3.10
1.60 1.54 1.60 1.89 1.92 2.10 2.07 1.88 1.79 1.68 1.71 1.73 1.68 1.57 1.50 1.45 1.42 1.32 1.20 1.11 1.11 1.11 1.13 1.20 1.30 1.29 1.29 1.38 1.44 1.48 1.57 1.74 1.81 1.76 1.76 1.80 1.85 1.99 2.18 2.33 2.45 2.47 2.26 2.32